{"data":{"norad_id":54867,"intl_designator":"2022-177AZ","name":"STARLINK-5396","alt_names":[],"object_type":"PAYLOAD","status":"ACTIVE","operator":null,"country":"US","launch_date":"2022-12-28","launch_site_code":"AFETR","launch_vehicle":null,"mission":null,"orbit_class":"UNKNOWN","rcs_meters":null,"size_class":null,"mass_kg":null,"dimensions":null,"purposes":["comms"],"wikipedia_slug":null,"has_3d_model":false,"image_url":null,"decayed_at":null,"tle_current":{"epoch":"2026-05-25T03:58:48.366048Z","epoch_age_seconds":60026,"freshness":"FRESH","line1":"1 54867U 22177AZ  26145.16583757  .00000088  00000+0  12710-4 0  9999","line2":"2 54867  43.0033  49.9360 0000916 253.8166 106.2585 15.27575748188783","mean_motion":15.27575748,"eccentricity":9.16e-5,"inclination_deg":43.0033,"raan_deg":49.936,"arg_perigee_deg":253.8166,"mean_anomaly_deg":106.2585,"bstar":1.271e-5,"rev_number":18878,"period_min":94.267011104709,"perigee_km":482.43334227418,"apogee_km":483.69031389949,"semimajor_km":6861.1988280868,"source":"CELESTRAK","updated_at":"2026-05-25T13:38:17.729152Z"}}}